Location: Barcelona
(41.3829°N, 2.1774°E)
Time: 17:38:21
(UTC+00:00)

ISS - Pass Details

Date: 07 May 2026
Orbit: 414 x 424 km, 51.6° (Epoch: 17 May)

Event Time Altitude Azimuth Distance (km) Brightness Sun altitude
Rises 04:29:49 0° 294° (WNW) 2,364 -0.3 -2.8°
Reaches altitude 10° 04:32:15 10° 277° (W) 1,498 -1.5 -2.4°
Maximum altitude 04:34:49 20° 227° (SW) 1,017 -2.3 -1.9°
Drops below altitude 10° 04:37:24 10° 177° (S) 1,495 -1.2 -1.5°
Sets 04:39:49 0° 160° (SSE) 2,356 0.0 -1.1°
